Weather History for Coventry, United Kingdom

Change the Weather History Date:

Friday, August 2, 2013

  Actual Average Record
Temperature  
Mean Temperature 71 °F -  
Max Temperature 78 °F 69 °F 87 °F (1999)
Min Temperature 64 °F 53 °F 48 °F (2003)
Cooling Degree Days 6    
Growing Degree Days 21 (Base 50)    
Moisture  
Dew Point 58 °F    
Average Humidity 68    
Maximum Humidity 88    
Minimum Humidity 42    
Precipitation  
Precipitation 0.00 in - - ()
Sea Level Pressure  
Sea Level Pressure 29.74 in    
Wind  
Wind Speed 10 mph ()    
Max Wind Speed 16 mph    
Max Gust Speed -    
Visibility 6.0 miles    
Events Rain , Thunderstorm    
Averages and records for this station are not official NWS values.
T = Trace of Precipitation, MM = Missing Value Source: Averaged Metar Reports

Daily Weather History Graph

Daily Weather History Graph

Search for Another Location

Airport:

Trip Planner

Search our weather history database for the weather conditions in past years. The results will help you decide how hot, cold, wet, or windy it might be!

Date:

Astronomy

Aug. 02, 2013 Rise Set
Actual Time 5:27 AM BST 8:55 PM BST
Civil Twilight 4:46 AM BST 9:36 PM BST
Nautical Twilight 3:49 AM BST 10:32 PM BST
Astronomical Twilight 2:27 AM BST 11:52 PM BST
Moon 1:32 AM BST (8/2) 5:47 PM BST (8/2)
Length of Visible Light 16h 50m
Length of Day
15h 27m
Waning Crescent, 17% of the Moon is Illuminated
Aug 2
Waning Crescent
Aug 6
New
Aug 14
First Quarter
Aug 21
Full
Aug 28
Last Quarter

Hourly Weather History & Observations

Time (BST) Temp. Dew Point Humidity Pressure Visibility Wind Dir Wind Speed Gust Speed Precip Events Conditions
12:20 AM 69.8 °F 57.2 °F 64% 29.71 in - SSW 6.9 mph - N/A   Clear
12:50 AM 68.0 °F 59.0 °F 73% 29.71 in - SSW 10.4 mph - N/A   Clear
1:20 AM 66.2 °F 60.8 °F 83% 29.71 in - SSW 8.1 mph - N/A   Clear
1:50 AM 66.2 °F 60.8 °F 83% 29.71 in - SSW 8.1 mph - N/A   Clear
6:50 AM 64.4 °F 60.8 °F 88% 29.74 in 6.2 mi South 8.1 mph - N/A   Mostly Cloudy
7:20 AM 64.4 °F 60.8 °F 88% 29.74 in 5.0 mi South 6.9 mph - N/A   Mostly Cloudy
7:50 AM 64.4 °F 60.8 °F 88% 29.74 in 5.0 mi South 12.7 mph - N/A Rain Light Rain
8:20 AM 66.2 °F 60.8 °F 83% 29.74 in 5.0 mi South 9.2 mph - N/A   Mostly Cloudy
8:50 AM 68.0 °F 62.6 °F 83% 29.71 in 5.0 mi South 11.5 mph - N/A   Mostly Cloudy
9:20 AM 68.0 °F 60.8 °F 78% 29.74 in 5.0 mi SSW 11.5 mph - N/A   Mostly Cloudy
9:50 AM 68.0 °F 60.8 °F 78% 29.74 in 5.0 mi South 11.5 mph - N/A   Mostly Cloudy
10:20 AM 68.0 °F 60.8 °F 78% 29.74 in 6.2 mi South 12.7 mph - N/A   Mostly Cloudy
10:50 AM 68.0 °F 62.6 °F 83% 29.74 in 6.2 mi South 11.5 mph - N/A   Scattered Clouds
11:20 AM 69.8 °F 62.6 °F 78% 29.74 in 6.2 mi South 12.7 mph - N/A   Scattered Clouds
11:50 AM 71.6 °F 62.6 °F 73% 29.74 in 6.2 mi South 15.0 mph - N/A   Mostly Cloudy
12:20 PM 71.6 °F 62.6 °F 73% 29.74 in 6.2 mi South 13.8 mph - N/A   Mostly Cloudy
12:50 PM 75.2 °F 60.8 °F 61% 29.71 in 6.2 mi SSW 11.5 mph - N/A   Mostly Cloudy
1:20 PM 75.2 °F 59.0 °F 57% 29.74 in 6.2 mi SSW 13.8 mph - N/A   Mostly Cloudy
1:50 PM 77.0 °F 57.2 °F 50% 29.74 in 6.2 mi SSW 12.7 mph - N/A   Scattered Clouds
2:20 PM 78.8 °F 55.4 °F 44% 29.74 in 6.2 mi SSW 16.1 mph - N/A   Scattered Clouds
2:50 PM 77.0 °F 53.6 °F 44% 29.74 in 6.2 mi SW 16.1 mph - N/A   Scattered Clouds
3:20 PM 78.8 °F 53.6 °F 42% 29.74 in 6.2 mi SSW 13.8 mph - N/A   Partly Cloudy
3:50 PM 77.0 °F 53.6 °F 44% 29.74 in 6.2 mi SSW 12.7 mph - N/A   Scattered Clouds
7:20 PM 75.2 °F 55.4 °F 50% 29.71 in 6.2 mi South 13.8 mph - N/A   Scattered Clouds
7:50 PM 73.4 °F 55.4 °F 53% 29.71 in 6.2 mi South 13.8 mph - N/A   Scattered Clouds
8:20 PM 71.6 °F 55.4 °F 57% 29.74 in 6.2 mi South 13.8 mph - N/A   Scattered Clouds
8:50 PM 69.8 °F 55.4 °F 60% 29.74 in 6.2 mi SSW 5.8 mph - N/A   Scattered Clouds
9:20 PM 68.0 °F 55.4 °F 64% 29.74 in 6.2 mi SSW 12.7 mph - N/A   Scattered Clouds
9:50 PM 68.0 °F 55.4 °F 64% 29.77 in 6.2 mi SSW 13.8 mph - N/A   Scattered Clouds
10:20 PM 66.2 °F 55.4 °F 68% 29.77 in 6.2 mi SSW 11.5 mph - N/A   Scattered Clouds
10:50 PM 66.2 °F 55.4 °F 68% 29.77 in 6.2 mi SSW 10.4 mph - N/A Thunderstorm Scattered Clouds
11:20 PM 64.4 °F 55.4 °F 73% 29.77 in 6.2 mi SSW 9.2 mph - N/A Thunderstorm Scattered Clouds
11:50 PM 64.4 °F 53.6 °F 68% 29.77 in 6.2 mi WSW 12.7 mph - N/A   Scattered Clouds